Time,TemperatureF,DewpointF,PressureIn,WindDirection,WindDirectionDegrees,WindSpeedMPH,WindSpeedGustMPH,Humidity,HourlyPrecipIn,Conditions,Clouds,dailyrainin,SoftwareType,DateUTC
2013-11-11 00:11:00,-999.0,-99.9,26.55,North,-999,-999.0,-999.0,-999,0.00,,,0.00,weatherlink.com 1.10,2013-11-11 05:11:00,
2013-11-11 00:26:00,-999.0,-99.9,26.56,North,-999,-999.0,-999.0,-999,0.00,,,0.00,weatherlink.com 1.10,2013-11-11 05:26:00,
2013-11-11 00:41:00,-999.0,-99.9,26.56,North,-999,-999.0,-999.0,-999,0.00,,,0.00,weatherlink.com 1.10,2013-11-11 05:41:00,
2013-11-11 00:56:00,-999.0,-99.9,26.56,North,-999,-999.0,-999.0,-999,0.00,,,0.00,weatherlink.com 1.10,2013-11-11 05:56:00,
2013-11-11 01:11:00,-999.0,-99.9,26.56,North,-999,-999.0,-999.0,-999,0.00,,,0.00,weatherlink.com 1.10,2013-11-11 06:11:00,
2013-11-11 01:26:00,-999.0,-99.9,26.56,North,-999,-999.0,-999.0,-999,0.00,,,0.00,weatherlink.com 1.10,2013-11-11 06:26:00,
2013-11-11 01:41:00,-999.0,-99.9,26.55,North,-999,-999.0,-999.0,-999,0.00,,,0.00,weatherlink.com 1.10,2013-11-11 06:41:00,
2013-11-11 01:56:00,-999.0,-99.9,26.56,North,-999,-999.0,-999.0,-999,0.00,,,0.00,weatherlink.com 1.10,2013-11-11 06:56:00,
2013-11-11 02:11:00,-999.0,-99.9,26.56,North,-999,-999.0,-999.0,-999,0.00,,,0.00,weatherlink.com 1.10,2013-11-11 07:11:00,
2013-11-11 02:26:00,-999.0,-99.9,26.56,North,-999,-999.0,-999.0,-999,0.00,,,0.00,weatherlink.com 1.10,2013-11-11 07:26:00,
2013-11-11 02:42:00,-999.0,-99.9,26.56,North,-999,-999.0,-999.0,-999,0.00,,,0.00,weatherlink.com 1.10,2013-11-11 07:42:00,
2013-11-11 02:57:00,-999.0,-99.9,26.56,North,-999,-999.0,-999.0,-999,0.00,,,0.00,weatherlink.com 1.10,2013-11-11 07:57:00,
2013-11-11 03:12:00,-999.0,-99.9,26.55,North,-999,-999.0,-999.0,-999,0.00,,,0.00,weatherlink.com 1.10,2013-11-11 08:12:00,
2013-11-11 03:27:00,-999.0,-99.9,26.55,North,-999,-999.0,-999.0,-999,0.00,,,0.00,weatherlink.com 1.10,2013-11-11 08:27:00,
2013-11-11 03:42:00,-999.0,-99.9,26.54,North,-999,-999.0,-999.0,-999,0.00,,,0.00,weatherlink.com 1.10,2013-11-11 08:42:00,
2013-11-11 03:57:00,-999.0,-99.9,26.55,North,-999,-999.0,-999.0,-999,0.00,,,0.00,weatherlink.com 1.10,2013-11-11 08:57:00,
2013-11-11 04:12:00,-999.0,-99.9,26.55,North,-999,-999.0,-999.0,-999,0.00,,,0.00,weatherlink.com 1.10,2013-11-11 09:12:00,
2013-11-11 04:27:00,-999.0,-99.9,26.54,North,-999,-999.0,-999.0,-999,0.00,,,0.00,weatherlink.com 1.10,2013-11-11 09:27:00,
2013-11-11 04:42:00,-999.0,-99.9,26.55,North,-999,-999.0,-999.0,-999,0.00,,,0.00,weatherlink.com 1.10,2013-11-11 09:42:00,
2013-11-11 04:57:00,-999.0,-99.9,26.55,North,-999,-999.0,-999.0,-999,0.00,,,0.00,weatherlink.com 1.10,2013-11-11 09:57:00,
2013-11-11 05:12:00,-999.0,-99.9,26.55,North,-999,-999.0,-999.0,-999,0.00,,,0.00,weatherlink.com 1.10,2013-11-11 10:12:00,
2013-11-11 05:27:00,-999.0,-99.9,26.56,North,-999,-999.0,-999.0,-999,0.00,,,0.00,weatherlink.com 1.10,2013-11-11 10:27:00,
2013-11-11 05:42:00,-999.0,-99.9,26.56,North,-999,-999.0,-999.0,-999,0.00,,,0.00,weatherlink.com 1.10,2013-11-11 10:42:00,
2013-11-11 05:58:00,-999.0,-99.9,26.56,North,-999,-999.0,-999.0,-999,0.00,,,0.00,weatherlink.com 1.10,2013-11-11 10:58:00,
2013-11-11 06:13:00,-999.0,-99.9,26.57,North,-999,-999.0,-999.0,-999,0.00,,,0.00,weatherlink.com 1.10,2013-11-11 11:13:00,
2013-11-11 06:28:00,-999.0,-99.9,26.57,North,-999,-999.0,-999.0,-999,0.00,,,0.00,weatherlink.com 1.10,2013-11-11 11:28:00,
2013-11-11 06:43:00,-999.0,-99.9,26.58,North,-999,-999.0,-999.0,-999,0.00,,,0.00,weatherlink.com 1.10,2013-11-11 11:43:00,
2013-11-11 06:58:00,-999.0,-99.9,26.58,North,-999,-999.0,-999.0,-999,0.00,,,0.00,weatherlink.com 1.10,2013-11-11 11:58:00,
2013-11-11 07:13:00,-999.0,-99.9,26.58,North,-999,-999.0,-999.0,-999,0.00,,,0.00,weatherlink.com 1.10,2013-11-11 12:13:00,
2013-11-11 07:28:00,-999.0,-99.9,26.59,North,-999,-999.0,-999.0,-999,0.00,,,0.00,weatherlink.com 1.10,2013-11-11 12:28:00,
2013-11-11 07:43:00,-999.0,-99.9,26.59,North,-999,-999.0,-999.0,-999,0.00,,,0.00,weatherlink.com 1.10,2013-11-11 12:43:00,
2013-11-11 07:58:00,23.5,19.0,26.59,North,355,0.0,0.0,82,0.00,,,0.00,weatherlink.com 1.10,2013-11-11 12:58:00,
2013-11-11 08:13:00,24.2,18.0,26.59,North,355,0.0,0.0,77,0.00,,,0.00,weatherlink.com 1.10,2013-11-11 13:13:00,
2013-11-11 08:22:00,25.7,19.0,26.59,North,355,0.0,1.0,77,0.00,,,0.00,weatherlink.com 1.10,2013-11-11 13:22:00,
2013-11-11 08:35:00,28.5,20.0,26.60,North,355,0.0,1.0,70,0.00,,,0.00,weatherlink.com 1.10,2013-11-11 13:35:00,
2013-11-11 08:50:00,32.5,21.0,26.60,North,355,0.0,0.0,64,0.00,,,0.00,weatherlink.com 1.10,2013-11-11 13:50:00,
2013-11-11 09:06:00,35.2,19.0,26.60,North,355,1.0,3.0,51,0.00,,,0.00,weatherlink.com 1.10,2013-11-11 14:06:00,
2013-11-11 09:21:00,38.6,23.0,26.60,North,355,0.0,0.0,54,0.00,,,0.00,weatherlink.com 1.10,2013-11-11 14:21:00,
2013-11-11 09:36:00,41.3,18.0,26.59,North,355,0.0,1.0,40,0.00,,,0.00,weatherlink.com 1.10,2013-11-11 14:36:00,
2013-11-11 09:51:00,45.4,9.0,26.60,North,355,0.0,0.0,23,0.00,,,0.00,weatherlink.com 1.10,2013-11-11 14:51:00,
2013-11-11 10:06:00,49.4,9.0,26.60,North,355,0.0,0.0,19,0.00,,,0.00,weatherlink.com 1.10,2013-11-11 15:06:00,
2013-11-11 10:21:00,49.6,11.0,26.60,North,355,2.0,4.0,21,0.00,,,0.00,weatherlink.com 1.10,2013-11-11 15:21:00,
2013-11-11 10:36:00,49.1,9.0,26.59,WSW,238,3.0,5.0,20,0.00,,,0.00,weatherlink.com 1.10,2013-11-11 15:36:00,
2013-11-11 10:51:00,49.8,10.0,26.59,SW,219,0.0,4.0,20,0.00,,,0.00,weatherlink.com 1.10,2013-11-11 15:51:00,
2013-11-11 11:06:00,51.0,9.0,26.59,SW,219,0.0,5.0,18,0.00,,,0.00,weatherlink.com 1.10,2013-11-11 16:06:00,
2013-11-11 11:21:00,52.0,11.0,26.58,SW,221,4.0,5.0,19,0.00,,,0.00,weatherlink.com 1.10,2013-11-11 16:21:00,
2013-11-11 11:36:00,51.9,17.0,26.57,SSE,148,4.0,8.0,25,0.00,,,0.00,weatherlink.com 1.10,2013-11-11 16:36:00,
2013-11-11 11:51:00,50.5,17.0,26.56,ESE,123,1.0,10.0,27,0.00,,,0.00,weatherlink.com 1.10,2013-11-11 16:51:00,
2013-11-11 12:06:00,50.4,18.0,26.56,SSE,151,3.0,10.0,28,0.00,,,0.00,weatherlink.com 1.10,2013-11-11 17:06:00,
2013-11-11 12:21:00,50.7,18.0,26.55,SE,139,3.0,7.0,28,0.00,,,0.00,weatherlink.com 1.10,2013-11-11 17:21:00,
2013-11-11 12:36:00,51.4,19.0,26.54,SE,130,6.0,9.0,28,0.00,,,0.00,weatherlink.com 1.10,2013-11-11 17:36:00,
2013-11-11 12:51:00,51.7,19.0,26.54,ESE,111,4.0,8.0,28,0.00,,,0.00,weatherlink.com 1.10,2013-11-11 17:51:00,
2013-11-11 13:06:00,51.3,18.0,26.53,SE,125,6.0,8.0,27,0.00,,,0.00,weatherlink.com 1.10,2013-11-11 18:06:00,
2013-11-11 13:21:00,52.5,19.0,26.52,NE,55,3.0,5.0,27,0.00,,,0.00,weatherlink.com 1.10,2013-11-11 18:21:00,
2013-11-11 13:36:00,53.3,21.0,26.51,ESE,102,0.0,7.0,28,0.00,,,0.00,weatherlink.com 1.10,2013-11-11 18:36:00,
2013-11-11 13:51:00,53.6,20.0,26.51,East,87,2.0,7.0,27,0.00,,,0.00,weatherlink.com 1.10,2013-11-11 18:51:00,
2013-11-11 14:06:00,53.8,20.0,26.50,SSE,159,3.0,9.0,27,0.00,,,0.00,weatherlink.com 1.10,2013-11-11 19:06:00,
2013-11-11 14:21:00,53.5,20.0,26.50,East,92,2.0,9.0,27,0.00,,,0.00,weatherlink.com 1.10,2013-11-11 19:21:00,
2013-11-11 14:36:00,54.1,21.0,26.50,East,101,2.0,8.0,28,0.00,,,0.00,weatherlink.com 1.10,2013-11-11 19:36:00,
2013-11-11 14:51:00,54.5,20.0,26.50,SE,132,6.0,8.0,26,0.00,,,0.00,weatherlink.com 1.10,2013-11-11 19:51:00,
2013-11-11 15:06:00,54.4,20.0,26.50,ESE,119,0.0,7.0,26,0.00,,,0.00,weatherlink.com 1.10,2013-11-11 20:06:00,
2013-11-11 15:21:00,54.2,20.0,26.50,ESE,123,2.0,7.0,26,0.00,,,0.00,weatherlink.com 1.10,2013-11-11 20:21:00,
2013-11-11 15:36:00,53.9,20.0,26.50,ESE,123,2.0,5.0,27,0.00,,,0.00,weatherlink.com 1.10,2013-11-11 20:36:00,
2013-11-11 15:51:00,53.3,19.0,26.50,SE,126,5.0,7.0,26,0.00,,,0.00,weatherlink.com 1.10,2013-11-11 20:51:00,
2013-11-11 16:06:00,54.4,21.0,26.50,SE,124,0.0,3.0,27,0.00,,,0.00,weatherlink.com 1.10,2013-11-11 21:06:00,
2013-11-11 16:21:00,52.5,19.0,26.49,SE,126,1.0,7.0,27,0.00,,,0.00,weatherlink.com 1.10,2013-11-11 21:21:00,
2013-11-11 16:36:00,51.7,19.0,26.50,SE,125,1.0,4.0,27,0.00,,,0.00,weatherlink.com 1.10,2013-11-11 21:36:00,
2013-11-11 16:51:00,50.7,18.0,26.50,SE,125,2.0,5.0,27,0.00,,,0.00,weatherlink.com 1.10,2013-11-11 21:51:00,
2013-11-11 17:06:00,49.6,22.0,26.50,SE,125,0.0,5.0,34,0.00,,,0.00,weatherlink.com 1.10,2013-11-11 22:06:00,
2013-11-11 17:21:00,-999.0,-99.9,26.49,North,-999,-999.0,-999.0,-999,0.00,,,0.00,weatherlink.com 1.10,2013-11-11 22:21:00,
2013-11-11 17:37:00,-999.0,-99.9,26.49,North,-999,-999.0,-999.0,-999,0.00,,,0.00,weatherlink.com 1.10,2013-11-11 22:37:00,
2013-11-11 17:52:00,-999.0,-99.9,26.50,North,-999,-999.0,-999.0,-999,0.00,,,0.00,weatherlink.com 1.10,2013-11-11 22:52:00,
2013-11-11 18:07:00,-999.0,-99.9,26.50,North,-999,-999.0,-999.0,-999,0.00,,,0.00,weatherlink.com 1.10,2013-11-11 23:07:00,
2013-11-11 18:22:00,-999.0,-99.9,26.50,North,-999,-999.0,-999.0,-999,0.00,,,0.00,weatherlink.com 1.10,2013-11-11 23:22:00,
2013-11-11 18:37:00,-999.0,-99.9,26.50,North,-999,-999.0,-999.0,-999,0.00,,,0.00,weatherlink.com 1.10,2013-11-11 23:37:00,
2013-11-11 18:52:00,-999.0,-99.9,26.50,North,-999,-999.0,-999.0,-999,0.00,,,0.00,weatherlink.com 1.10,2013-11-11 23:52:00,
2013-11-11 19:07:00,-999.0,-99.9,26.50,North,-999,-999.0,-999.0,-999,0.00,,,0.00,weatherlink.com 1.10,2013-11-12 00:07:00,
2013-11-11 19:22:00,-999.0,-99.9,26.49,North,-999,-999.0,-999.0,-999,0.00,,,0.00,weatherlink.com 1.10,2013-11-12 00:22:00,
2013-11-11 19:37:00,-999.0,-99.9,26.49,North,-999,-999.0,-999.0,-999,0.00,,,0.00,weatherlink.com 1.10,2013-11-12 00:37:00,
2013-11-11 19:52:00,-999.0,-99.9,26.49,North,-999,-999.0,-999.0,-999,0.00,,,0.00,weatherlink.com 1.10,2013-11-12 00:52:00,
2013-11-11 20:07:00,-999.0,-99.9,26.49,North,-999,-999.0,-999.0,-999,0.00,,,0.00,weatherlink.com 1.10,2013-11-12 01:07:00,
2013-11-11 20:22:00,-999.0,-99.9,26.49,North,-999,-999.0,-999.0,-999,0.00,,,0.00,weatherlink.com 1.10,2013-11-12 01:22:00,
2013-11-11 20:37:00,-999.0,-99.9,26.48,North,-999,-999.0,-999.0,-999,0.00,,,0.00,weatherlink.com 1.10,2013-11-12 01:37:00,
2013-11-11 20:52:00,-999.0,-99.9,26.48,North,-999,-999.0,-999.0,-999,0.00,,,0.00,weatherlink.com 1.10,2013-11-12 01:52:00,
2013-11-11 21:08:00,-999.0,-99.9,26.49,North,-999,-999.0,-999.0,-999,0.00,,,0.00,weatherlink.com 1.10,2013-11-12 02:08:00,
2013-11-11 21:23:00,-999.0,-99.9,26.49,North,-999,-999.0,-999.0,-999,0.00,,,0.00,weatherlink.com 1.10,2013-11-12 02:23:00,
2013-11-11 21:38:00,-999.0,-99.9,26.49,North,-999,-999.0,-999.0,-999,0.00,,,0.00,weatherlink.com 1.10,2013-11-12 02:38:00,
2013-11-11 21:53:00,-999.0,-99.9,26.49,North,-999,-999.0,-999.0,-999,0.00,,,0.00,weatherlink.com 1.10,2013-11-12 02:53:00,
2013-11-11 22:08:00,-999.0,-99.9,26.48,North,-999,-999.0,-999.0,-999,0.00,,,0.00,weatherlink.com 1.10,2013-11-12 03:08:00,
2013-11-11 22:23:00,-999.0,-99.9,26.48,North,-999,-999.0,-999.0,-999,0.00,,,0.00,weatherlink.com 1.10,2013-11-12 03:23:00,
2013-11-11 22:38:00,-999.0,-99.9,26.48,North,-999,-999.0,-999.0,-999,0.00,,,0.00,weatherlink.com 1.10,2013-11-12 03:38:00,
2013-11-11 22:53:00,-999.0,-99.9,26.48,North,-999,-999.0,-999.0,-999,0.00,,,0.00,weatherlink.com 1.10,2013-11-12 03:53:00,
2013-11-11 23:08:00,-999.0,-99.9,26.47,North,-999,-999.0,-999.0,-999,0.00,,,0.00,weatherlink.com 1.10,2013-11-12 04:08:00,
2013-11-11 23:23:00,-999.0,-99.9,26.47,North,-999,-999.0,-999.0,-999,0.00,,,0.00,weatherlink.com 1.10,2013-11-12 04:23:00,
2013-11-11 23:38:00,-999.0,-99.9,26.47,North,-999,-999.0,-999.0,-999,0.00,,,0.00,weatherlink.com 1.10,2013-11-12 04:38:00,
2013-11-11 23:53:00,-999.0,-99.9,26.46,North,-999,-999.0,-999.0,-999,0.00,,,0.00,weatherlink.com 1.10,2013-11-12 04:53:00,